Regional Weather Roundup
Issued by NWS

Home | Current Version | Previous Version | Text Only | Print | Product List | Glossary On
Versions: 1 2 3 4 5 6 7 8 9 10 11 12 13 14 15 16 17 18 19 20 21 22 23 24 25 26 27 28 29 30 31 32 33 34 35 36 37 38 39 40 41 42 43 44 45 46 47 48 49 50
000
ASUS43 KMKX 071810
RWRWI

WISCONSIN REGIONAL WEATHER ROUNDUP
NATIONAL WEATHER SERVICE MILWAUKEE/SULLIVAN WI
1200 PM CST SUN FEB 07 2016

NOTE: "FAIR" INDICATES FEW OR NO CLOUDS BELOW 12,000 FEET WITH NO
SIGNIFICANT WEATHER AND/OR OBSTRUCTIONS TO VISIBILITY.

WIZ001-002-006>008-014>016-023>028-071900-
NORTHWEST WISCONSIN

CITY           SKY/WX    TMP DP  RH WIND       PRES   REMARKS
SUPERIOR ARPT  DRIZZLE   36  33  90 W10       29.49S WCI  28
6HR MIN TEMP:  34; 6HR MAX TEMP:  37;

ASHLAND        CLOUDY    37  32  82 SW12      29.48S WCI  29
6HR MIN TEMP:  27; 6HR MAX TEMP:  37; 6HR PCP: TRACE;

HAYWARD        FLURRIES  35  31  85 W7        29.51S WCI  29
6HR MIN TEMP:  31; 6HR MAX TEMP:  36; 6HR PCP: TRACE;

SIREN          FLURRIES  37  29  73 W13G20    29.55F WCI  29
6HR MIN TEMP:  33; 6HR MAX TEMP:  38; 6HR PCP:  0.01;

CUMBERLAND     CLOUDY    36  27  69 W18       29.54F WCI  25
RICE LAKE      CLOUDY    38  28  65 W15G21    29.57S WCI  30
6HR MIN TEMP:  32; 6HR MAX TEMP:  38;

CHETEK         CLOUDY    39  28  65 W13G24    29.56F WCI  31
6HR MIN TEMP:  31; 6HR MAX TEMP:  39;

LADYSMITH      CLOUDY    37  31  78 W13       29.55F WCI  29
EAU CLAIRE     CLOUDY    39  27  62 W16       29.59F WCI  30
6HR MIN TEMP:  30; 6HR MAX TEMP:  39;

MENOMONIE      PTSUNNY   43  27  54 W16G29    29.60F
6HR MIN TEMP:  31; 6HR MAX TEMP:  43;

NEW RICHMOND   CLOUDY    40  26  56 W20G25    29.58F WCI  31
6HR MIN TEMP:  32; 6HR MAX TEMP:  40;

OSCEOLA        CLOUDY    40  27  61 W15G25    29.61F WCI  31
6HR MIN TEMP:  33; 6HR MAX TEMP:  40; 6HR PCP:  0.01;

$$

WIZ003>005-009-010-017-018-071900-
NORTH CENTRAL WISCONSIN

CITY           SKY/WX    TMP DP  RH WIND       PRES   REMARKS
MANITOWISH WTR DRIZZLE   31  31 100 SW8       29.48F WCI  24
6HR MIN TEMP:  29; 6HR MAX TEMP:  31;

ARBOR VITAE    CLOUDY    33  31  94 SW9       29.49F FOG     WCI  25
6HR MIN TEMP:  32; 6HR MAX TEMP:  33;

WOODRUFF       CLOUDY    33  31  94 SW9       29.49F FOG     WCI  25
6HR MIN TEMP:  32; 6HR MAX TEMP:  33;

RHINELANDER    CLOUDY    32  29  88 SW13      29.52F FOG     WCI  22
6HR MIN TEMP:  29; 6HR MAX TEMP:  32; 6HR PCP: TRACE;

EAGLE RIVER    CLOUDY    32  31  94 SW12      29.49F FOG     WCI  23
LAND O LAKES   CLOUDY    32  31  94 SW6       29.50S FOG     WCI  26
6HR MIN TEMP:  29; 6HR MAX TEMP:  32;

PHILLIPS       CLOUDY    33  31  92 SW12      29.50F WCI  24
6HR MIN TEMP:  30; 6HR MAX TEMP:  33;

TOMAHAWK       CLOUDY    32  29  88 SW6       29.53F WCI  27
6HR MIN TEMP:  28; 6HR MAX TEMP:  32;

MEDFORD        CLOUDY    35  30  82 SW12G17   29.54F WCI  26
6HR MIN TEMP:  28; 6HR MAX TEMP:  35;

MERRILL        CLOUDY    34  30  85 SW12G18   29.55F WCI  26
6HR MIN TEMP:  30; 6HR MAX TEMP:  34;

$$

WIZ029-030-035-036-043>047-071900-
CENTRAL WISCONSIN

CITY           SKY/WX    TMP DP  RH WIND       PRES   REMARKS
WAUSAU         CLOUDY    37  29  72 SW12      29.55F WCI  29
6HR MIN TEMP:  31; 6HR MAX TEMP:  37; 6HR PCP: TRACE;

MOSINEE        CLOUDY    36  30  80 W14G20    29.58F WCI  27
MARSHFIELD     CLOUDY    37  27  67 W13       29.58S WCI  29
6HR MIN TEMP:  28; 6HR MAX TEMP:  37;

STEVENS POINT  CLOUDY    37  28  72 W15G22    29.59F WCI  27
6HR MIN TEMP:  28; 6HR MAX TEMP:  37;

WAUPACA        PTSUNNY   42  30  63 W13G23    29.60F
6HR MIN TEMP:  34; 6HR MAX TEMP:  43;

WAUTOMA        MOSUNNY   43  30  61 W16       29.62F
6HR MIN TEMP:  34; 6HR MAX TEMP:  42;

WISC RAPIDS    CLOUDY    38  27  64 W13G26    29.62F WCI  30
6HR MIN TEMP:  31; 6HR MAX TEMP:  39; 6HR PCP: TRACE;

CAMP DOUGLAS   MOSUNNY   39  34  81 W16       29.63F WCI  30
$$

WIZ011>013-019>022-031-037>040-048>050-071900-
NORTHEAST WISCONSIN

CITY           SKY/WX    TMP DP  RH WIND       PRES   REMARKS
ANTIGO         CLOUDY    33  29  87 W13       29.55F WCI  24
6HR MIN TEMP:  29; 6HR MAX TEMP:  33;

SHAWANO        CLOUDY    42  31  65 SW8       29.58F
6HR MIN TEMP:  34; 6HR MAX TEMP:  42;

OCONTO         MOSUNNY   40  30  67 SW13G18   29.58F WCI  33
6HR MIN TEMP:  34; 6HR MAX TEMP:  40;

STURGEON BAY   MOSUNNY   39  28  65 SW16      29.61F WCI  30
6HR MIN TEMP:  34; 6HR MAX TEMP:  39;

GREEN BAY      SUNNY     39  30  70 SW10      29.60F WCI  32
6HR MIN TEMP:  35; 6HR MAX TEMP:  39;

MANITOWOC      SUNNY     41  30  65 SW12G20   29.62F
6HR MIN TEMP:  35; 6HR MAX TEMP:  41;

APPLETON       MOSUNNY   39  28  65 SW12        N/A  WCI  32
CLINTONVILLE   CLOUDY    41  30  65 SW9       29.59F
OSHKOSH        SUNNY     40  30  67 SW8       29.61F WCI  34
6HR MIN TEMP:  36; 6HR MAX TEMP:  40;

$$

WIZ032>034-041-042-053>061-071900-
SOUTHWEST WISCONSIN

CITY           SKY/WX    TMP DP  RH WIND       PRES   REMARKS
LA CROSSE      SUNNY     41  26  55 W14       29.68F
6HR MIN TEMP:  31; 6HR MAX TEMP:  41;

SPARTA         SUNNY     41  28  60 W13G20    29.65F
6HR MIN TEMP:  32; 6HR MAX TEMP:  41; 6HR PCP:  0.11;

VIROQUA        SUNNY     39  27  62 W21       29.66F WCI  29
6HR MIN TEMP:  31; 6HR MAX TEMP:  39;

BOSCOBEL       SUNNY     42  27  55 W12G23    29.71F
6HR MIN TEMP:  33; 6HR MAX TEMP:  42;

PRAIRIE DU CHI SUNNY     39  25  56 W20       29.73F WCI  30
6HR MIN TEMP:  33; 6HR MAX TEMP:  40;

PLATTEVILLE    SUNNY     40  30  67 W17       29.72F WCI  31
6HR MIN TEMP:  33; 6HR MAX TEMP:  40;

$$

WIZ056-057-062-063-064-067-068-071900-
SOUTH CENTRAL WISCONSIN

CITY           SKY/WX    TMP DP  RH WIND       PRES   REMARKS
REEDSBURG      SUNNY     40  29  65 W10       29.66F WCI  33
6HR MIN TEMP:  34; 6HR MAX TEMP:  40;

BARABOO/DELLS  MOSUNNY   40  28  62 W13       29.64F WCI  33
6HR MIN TEMP:  34; 6HR MAX TEMP:  40;

LONE ROCK      SUNNY     40  28  62 W14       29.69F WCI  32
6HR MIN TEMP:  34; 6HR MAX TEMP:  41;

MINERAL POINT  SUNNY     41  30  65 W16       29.69F
MADISON        MOSUNNY   40  29  64 W8        29.67F WCI  34
6HR MIN TEMP:  36; 6HR MAX TEMP:  40;

MIDDLETON      SUNNY     42  30  62 SW13      29.67F
6HR MIN TEMP:  37; 6HR MAX TEMP:  42;

WATERTOWN      SUNNY     40  31  70 SW10      29.66F WCI  34
6HR MIN TEMP:  35; 6HR MAX TEMP:  40;

MONROE         SUNNY     41  32  70 SW17      29.69F
JANESVILLE     SUNNY     43  32  65 SW12      29.70F
$$

WIZ051-052-058>065-066-070>072-071900-
SOUTHEAST WISCONSIN

CITY           SKY/WX    TMP DP  RH WIND       PRES   REMARKS
MILWAUKEE      PTSUNNY   42  29  59 SW18G28   29.68F
6HR MIN TEMP:  37; 6HR MAX TEMP:  43;

WAUKESHA       SUNNY     39  28  65 SW17G25   29.69F WCI  30
MILWAUKEE/TIMM SUNNY     41  28  60 SW16      29.68F
RACINE         MOSUNNY   42  30  62 W13G24    29.70F
6HR MIN TEMP:  37; 6HR MAX TEMP:  42;

BURLINGTON     MOSUNNY   39  29  68 SW17      29.70F WCI  30
6HR MIN TEMP:  34; 6HR MAX TEMP:  40;

KENOSHA        CLOUDY    40  30  67 W16       29.70F WCI  31
6HR MIN TEMP:  37; 6HR MAX TEMP:  42;

FOND DU LAC    SUNNY     39  30  70 SW10      29.63F WCI  32
6HR MIN TEMP:  37; 6HR MAX TEMP:  39;

SHEBOYGAN      SUNNY     39  30  70 SW12      29.63F WCI  32
6HR MIN TEMP:  36; 6HR MAX TEMP:  39;

WEST BEND      SUNNY     39  30  70 SW8       29.65F WCI  34
JUNEAU         SUNNY     38  30  73 SW15      29.66F WCI  29
6HR MIN TEMP:  34; 6HR MAX TEMP:  38;

$$

LSZ147-162-071900-
LAKE SUPERIOR

STATION/POSITION TIME  TEMP    WIND        PRES    WAVE
                       AIR SEA DIR/SP/G            HT/PER
                 (UTC) (F)     (DEG/KT/KT) (MB)    (FT/S)
DEVILS ISLAND    1800   33     220/  9/ 11  998.1F
PORT WING        1700   36     220/  7/ 13  998.3S
SAXON HARBOR     1700   37                  998.6R
$$

LMZ867-665-643>646-071900-
LAKE MICHIGAN

STATION/POSITION TIME  TEMP    WIND        PRES    WAVE
                       AIR SEA DIR/SP/G            HT/PER
                 (UTC) (F)     (DEG/KT/KT) (MB)    (FT/S)
CHAMBERS ISLAND  1700   38     180/  8/ 16 1002.7F
NORTHPORT PIER   1700   40     190/  7/ 12 1002.7F
ALGOMA LAKC1F1C2F2C3F3C4F4C5F5C6F6C7F7C8M1C9M2Ca!


USA.gov is the U.S. government's official web portal to all federal, state and local government web resources and services.